This demonstration page uses our WeatherBlox Daily Observations layout. Learn more.

Left ArrowRight Arrow

36.17497, -115.13722

Hourly Observations for January 1, 2021

Temp ( °F °C ) Dew Point ( °F °C ) Humidity (%) Winds ( mph kmh ) Pressure ( in mb ) Visibility ( mi km ) Precip ( " mm )
12:53 am 00:53 Clear 49 9.4 25 -3.9 39 39 NNW 16 26 30.09 1019 10 16 N/A
1:53 am 01:53 Clear 49 9.4 25 -3.9 39 39 NNW 17 28 30.09 1019 10 16 N/A
2:53 am 02:53 Clear 48 8.9 24 -4.4 39 39 NNW 16 26 30.10 1019 10 16 N/A
3:53 am 03:53 Clear 47 8.3 23 -5 39 39 NNW 16 26 30.11 1020 10 16 N/A
4:53 am 04:53 Clear 47 8.3 23 -5 39 39 NNW 16 26 30.13 1020 10 16 N/A
5:53 am 05:53 Clear 47 8.3 22 -5.6 37 37 NNW 14 22 30.16 1021 10 16 N/A
6:53 am 06:53 Sunny 44 6.7 22 -5.6 41 41 NNW 12 19 30.19 1022 10 16 N/A
7:53 am 07:53 Sunny 45 7.2 22 -5.6 40 40 NNW 14 22 30.22 1023 10 16 N/A
8:53 am 08:53 Sunny 50 10 22 -5.6 33 33 N 10 17 30.24 1024 10 16 N/A
9:53 am 09:53 Sunny 53 11.7 22 -5.6 30 30 NNW 18 30 30.24 1024 10 16 N/A
10:53 am 10:53 Sunny 54 12.2 21 -6.1 28 28 NNW 15 24 30.23 1024 10 16 N/A
11:53 am 11:53 Sunny 56 13.3 21 -6.1 26 26 NNW 13 20 30.20 1023 10 16 N/A
12:53 pm 12:53 Sunny 57 13.9 20 -6.7 24 24 NNW 12 19 30.18 1022 10 16 N/A
1:53 pm 13:53 Sunny 57 13.9 20 -6.7 24 24 NNE 8 13 30.17 1022 10 16 N/A
2:53 pm 14:53 Sunny 58 14.4 20 -6.7 23 23 N 5 7 30.18 1022 10 16 N/A
3:53 pm 15:53 Sunny 57 13.9 20 -6.7 24 24 E 8 13 30.18 1022 10 16 N/A
4:53 pm 16:53 Clear 53 11.7 20 -6.7 27 27 ESE 6 9 30.20 1023 10 16 N/A
5:53 pm 17:53 Clear 49 9.4 19 -7.2 31 31 E 6 9 30.21 1023 10 16 N/A
6:53 pm 18:53 Clear 49 9.4 19 -7.2 31 31 NW 3 6 30.22 1023 10 16 N/A
7:53 pm 19:53 Clear 46 7.8 20 -6.7 35 35 W 3 6 30.24 1024 10 16 N/A
8:53 pm 20:53 Clear 44 6.7 20 -6.7 38 38 N N/A 30.24 1024 10 16 N/A
9:53 pm 21:53 Clear 42 5.6 21 -6.1 43 43 N N/A 30.24 1024 10 16 N/A
10:53 pm 22:53 Clear 42 5.6 20 -6.7 41 41 N N/A 30.23 1024 10 16 N/A
11:53 pm 23:53 Clear 43 6.1 21 -6.1 42 42 WNW 6 9 30.24 1024 10 16 N/A

Powered by AerisWeather